User: anonymous   Login
Location: Huberhof
(49.2050°N, 7.4980°E)
Time: 00:18:23
(UTC+00:00)
Language:

COSMO-SKYMED 1 - Orbit

View from above orbital plane
View from above orbital plane
View from above satellite
View from above satellite

Ground track
Ground track

The orbit data is extracted from the following two-line orbital elements,

1 31598U 07023A   21021.80684442  .00000182  00000-0  29380-4 0  9997
2 31598  97.8836 207.7941 0001433  91.4920 268.6470 14.82157347737175
Epoch (UTC): 21 January 2021 19:21:51
Eccentricity: 0.0001433
inclination: 97.8836°
perigee height: 621 km
apogee height: 623 km
right ascension of ascending node: 207.7941°
argument of perigee: 91.4920°
revolutions per day: 14.82157347
mean anomaly at epoch: 268.6470°
orbit number at epoch: 73717

The dashed part of the orbit path shows where the satellite is in the earth's shadow,  

DLR